Погода в Крымке

Россия / Брянская область     53°06′24″N   32°56′58″E
темп.,
°C
ветер,
м/с
пор.,
м/с
влажн.,
%
обл.,
%
осадки,
мм/ч
давл.,
гПа
погр.,
м
13 мая, чт
чт1300:00+8ююв249242 1.5 1014167
03:00+7вюв489599 1.5 1013335
06:00+6в4998100 0.0 1013300
09:00+7юв5109499 3.9 1013785
12:00+11ююв697681 0.8 10121147
15:00+12ююв587615 1.8 1012997
18:00+12ю4878100 0.6 1012714
21:00+9юв499199 0.6 1013181
14 мая, пт
пт1400:00+8юв4109096 0.0 1013203
03:00+8вюв41092100 0.0 1012186
06:00+9вюв41085100 0.0 1012238
09:00+14юв6127256 0.0 1011443
12:00+19юв696432 0.0 10101166
15:00+20ююв686888 0.7 10081285
18:00+19ююв4778100 0.8 1006756
21:00+14ю411925 2.6 1006213
15 мая, сб
сб1500:00+12ю369493 0.0 1006103
03:00+11ююв38965 0.2 1006178
06:00+10ю410956 0.0 1007261
09:00+14ююз6108678 0.0 1009729
12:00+18ююз67663 0.4 10091332
15:00+17ююз5773100 1.6 10101041
18:00+15юз368524 1.8 1010335
21:00+12ююз359175 3.2 101087
16 мая, вс
вс1600:00+10юз49965 0.1 1011191
03:00+9юз36955 0.1 101396
06:00+9юз34934 0.0 101485
09:00+15ююз34800 0.0 1014439
12:00+19ю23641 0.0 10141093
15:00+21ююв335726 0.1 10131560
18:00+19ююв2469100 0.1 1013256
21:00+16вюв2273100 0.1 101317
17 мая, пн
пн1700:00+13вюв348961 0.0 101245
03:00+12в379213 0.0 1012117
06:00+13всв5139098 0.0 1010277
09:00+18в610795 0.4 1008445
12:00+23вюв7116333 0.0 1006949
15:00+25юв7155698 0.0 10051503
18:00+22юв7146797 0.0 1004803
21:00+20вюв6157329 0.1 1004538